Change the Weather History Date:

Sunday, September 22, 2013

  Actual Average Record
Temperature  
Mean Temperature 64 °F -  
Max Temperature 80 °F 69 °F 86 °F (1958)
Min Temperature 48 °F 43 °F 24 °F (1974)
Degree Days  
Heating Degree Days 1    
Growing Degree Days 14 (Base 50)    
Moisture  
Dew Point 49 °F    
Average Humidity 61    
Maximum Humidity 87    
Minimum Humidity 30    
Precipitation  
Precipitation 0.00 in - - ()
Sea Level Pressure  
Sea Level Pressure 29.85 in    
Wind  
Wind Speed 10 mph (SE)    
Max Wind Speed 22 mph    
Max Gust Speed 26 mph    
Visibility 10 miles    
Events      
Averages and records for this station are not official NWS values.
T = Trace of Precipitation, MM = Missing Value Source: NWS Daily Summary

Daily Weather History Graph

Daily Weather History Graph

Search for Another Location

Airport or City:

Trip Planner

Search our weather history database for the weather conditions in past years. The results will help you decide how hot, cold, wet, or windy it might be!

Date:

Astronomy

Sep. 22, 2013 Rise Set
Actual Time 7:07 AM CDT 7:17 PM CDT
Civil Twilight 6:39 AM CDT 7:46 PM CDT
Nautical Twilight 6:05 AM CDT 8:19 PM CDT
Astronomical Twilight 5:30 AM CDT 8:54 PM CDT
Moon 8:59 PM CDT (9/22) 10:37 AM CDT (9/22)
Length of Visible Light 13h 06m
Length of Day
12h 09m
Waning Gibbous, 88% of the Moon is Illuminated
Sep 22
Waning Gibbous
Sep 26
Last Quarter
Oct 4
New
Oct 11
First Quarter
Oct 18
Full

Hourly Weather History & Observations

Time (CDT) Temp. Dew Point Humidity Pressure Visibility Wind Dir Wind Speed Gust Speed Precip Events Conditions
12:12 AM 51.8 °F 44.6 °F 76% 29.91 in 10.0 mi ESE 8.1 mph - N/A   Clear
12:32 AM 51.8 °F 44.6 °F 76% 29.91 in 10.0 mi ESE 6.9 mph - N/A   Clear
12:53 AM 53.6 °F 46.4 °F 77% 29.91 in 10.0 mi ESE 8.1 mph - N/A   Scattered Clouds
1:12 AM 51.8 °F 44.6 °F 76% 29.91 in 10.0 mi ESE 9.2 mph - N/A   Scattered Clouds
1:32 AM 51.8 °F 46.4 °F 82% 29.91 in 10.0 mi ESE 8.1 mph - N/A   Clear
1:53 AM 50.0 °F 44.6 °F 82% 29.91 in 10.0 mi ESE 8.1 mph - N/A   Unknown
2:12 AM 50.0 °F 44.6 °F 82% 29.91 in 10.0 mi SE 8.1 mph - N/A   Clear
2:32 AM 50.0 °F 44.6 °F 82% 29.91 in 10.0 mi ESE 6.9 mph - N/A   Clear
2:52 AM 51.8 °F 44.6 °F 76% 29.91 in 10.0 mi ESE 9.2 mph - N/A   Clear
3:12 AM 50.0 °F 44.6 °F 82% 29.90 in 10.0 mi ESE 8.1 mph - N/A   Clear
3:33 AM 50.0 °F 44.6 °F 82% 29.90 in 10.0 mi SE 8.1 mph - N/A   Clear
3:52 AM 50.0 °F 44.6 °F 82% 29.90 in 10.0 mi ESE 6.9 mph - N/A   Clear
4:12 AM 50.0 °F 44.6 °F 82% 29.90 in 10.0 mi SE 6.9 mph - N/A   Clear
4:33 AM 50.0 °F 44.6 °F 82% 29.89 in 10.0 mi ESE 6.9 mph - N/A   Clear
4:52 AM 48.2 °F 44.6 °F 87% 29.89 in 10.0 mi ESE 8.1 mph - N/A   Clear
5:12 AM 48.2 °F 44.6 °F 87% 29.89 in 10.0 mi ESE 6.9 mph - N/A   Clear
5:33 AM 48.2 °F 44.6 °F 87% 29.88 in 10.0 mi ESE 6.9 mph - N/A   Clear
5:52 AM 48.2 °F 44.6 °F 87% 29.88 in 10.0 mi ESE 6.9 mph - N/A   Clear
6:12 AM 48.2 °F 44.6 °F 87% 29.88 in 10.0 mi SE 6.9 mph - N/A   Clear
6:33 AM 51.8 °F 44.6 °F 76% 29.88 in 10.0 mi SE 8.1 mph - N/A   Clear
6:52 AM 51.8 °F 46.4 °F 82% 29.88 in 10.0 mi SE 9.2 mph - N/A   Clear
7:12 AM 51.8 °F 46.4 °F 82% 29.88 in 10.0 mi SE 9.2 mph - N/A   Clear
7:33 AM 51.8 °F 46.4 °F 82% 29.88 in 10.0 mi SE 6.9 mph - N/A   Clear
7:52 AM 53.6 °F 46.4 °F 77% 29.88 in 10.0 mi SE 8.1 mph - N/A   Clear
8:12 AM 53.6 °F 46.4 °F 77% 29.88 in 10.0 mi SE 9.2 mph - N/A   Clear
8:33 AM 55.4 °F 46.4 °F 72% 29.87 in 10.0 mi SE 13.8 mph 18.4 mph N/A   Clear
8:52 AM 57.2 °F 48.2 °F 72% 29.87 in 10.0 mi SSE 12.7 mph 21.9 mph N/A   Clear
9:12 AM 57.2 °F 48.2 °F 72% 29.88 in 10.0 mi SSE 12.7 mph 19.6 mph N/A   Clear
9:33 AM 60.8 °F 48.2 °F 63% 29.88 in 10.0 mi SSE 10.4 mph 17.3 mph N/A   Clear
9:52 AM 62.6 °F 50.0 °F 63% 29.88 in 10.0 mi SSE 12.7 mph - N/A   Clear
10:12 AM 64.4 °F 51.8 °F 64% 29.88 in 10.0 mi SSE 11.5 mph - N/A   Clear
10:33 AM 66.2 °F 51.8 °F 60% 29.88 in 10.0 mi SSE 12.7 mph 17.3 mph N/A   Clear
10:52 AM 68.0 °F 51.8 °F 56% 29.87 in 10.0 mi SSE 11.5 mph - N/A   Clear
11:12 AM 69.8 °F 51.8 °F 53% 29.87 in 10.0 mi SSE 11.5 mph 18.4 mph N/A   Clear
11:33 AM 71.6 °F 51.8 °F 50% 29.86 in 10.0 mi South 9.2 mph 18.4 mph N/A   Clear
11:52 AM 71.6 °F 51.8 °F 50% 29.86 in 10.0 mi SSE 11.5 mph - N/A   Clear
12:12 PM 73.4 °F 51.8 °F 47% 29.85 in 10.0 mi SSE 12.7 mph 17.3 mph N/A   Clear
12:33 PM 75.2 °F 51.8 °F 44% 29.85 in 10.0 mi SSE 13.8 mph 19.6 mph N/A   Clear
12:52 PM 75.2 °F 51.8 °F 44% 29.85 in 10.0 mi SSE 13.8 mph 21.9 mph N/A   Clear
1:12 PM 77.0 °F 51.8 °F 41% 29.84 in 10.0 mi SSE 16.1 mph - N/A   Clear
1:33 PM 78.8 °F 51.8 °F 39% 29.84 in 10.0 mi South 12.7 mph 21.9 mph N/A   Clear
1:52 PM 78.8 °F 51.8 °F 39% 29.83 in 10.0 mi South 13.8 mph 21.9 mph N/A   Clear
2:13 PM 78.8 °F 50.0 °F 36% 29.82 in 10.0 mi SSE 17.3 mph 23.0 mph N/A   Clear
2:32 PM 80.6 °F 50.0 °F 34% 29.82 in 10.0 mi SSE 11.5 mph 26.5 mph N/A   Clear
2:53 PM 80.6 °F 48.2 °F 32% 29.81 in 10.0 mi SSE 19.6 mph 24.2 mph N/A   Unknown
3:12 PM 80.6 °F 48.2 °F 32% 29.80 in 10.0 mi SSE 18.4 mph 26.5 mph N/A   Clear
3:33 PM 80.6 °F 48.2 °F 32% 29.80 in 10.0 mi SSE 12.7 mph 25.3 mph N/A   Clear
3:52 PM 80.6 °F 48.2 °F 32% 29.80 in 10.0 mi SSE 15.0 mph 26.5 mph N/A   Clear
4:12 PM 80.6 °F 46.4 °F 30% 29.79 in 10.0 mi SSE 18.4 mph 24.2 mph N/A   Clear
4:32 PM 80.6 °F 46.4 °F 30% 29.79 in 10.0 mi SSE 21.9 mph 26.5 mph N/A   Clear
4:52 PM 80.6 °F 46.4 °F 30% 29.79 in 10.0 mi SSE 17.3 mph 25.3 mph N/A   Clear
5:13 PM 80.6 °F 48.2 °F 32% 29.79 in 10.0 mi SSE 12.7 mph 20.7 mph N/A   Clear
5:32 PM 80.6 °F 48.2 °F 32% 29.79 in 10.0 mi SSE 13.8 mph 21.9 mph N/A   Clear
5:52 PM 78.8 °F 48.2 °F 34% 29.79 in 10.0 mi SSE 11.5 mph 24.2 mph N/A   Clear
6:13 PM 78.8 °F 48.2 °F 34% 29.80 in 10.0 mi SSE 10.4 mph 19.6 mph N/A   Clear
6:32 PM 77.0 °F 48.2 °F 36% 29.80 in 10.0 mi SSE 11.5 mph 20.7 mph N/A   Clear
6:52 PM 75.2 °F 50.0 °F 41% 29.80 in 10.0 mi SSE 9.2 mph - N/A   Clear
7:13 PM 73.4 °F 50.0 °F 44% 29.80 in 10.0 mi SSE 8.1 mph - N/A   Clear
7:32 PM 71.6 °F 50.0 °F 46% 29.81 in 10.0 mi SSE 6.9 mph - N/A   Clear
7:52 PM 68.0 °F 51.8 °F 56% 29.81 in 10.0 mi SSE 8.1 mph - N/A   Clear
8:12 PM 68.0 °F 51.8 °F 56% 29.82 in 10.0 mi SSE 8.1 mph - N/A   Clear
8:32 PM 66.2 °F 51.8 °F 60% 29.82 in 10.0 mi SSE 8.1 mph - N/A   Clear
8:52 PM 64.4 °F 51.8 °F 64% 29.82 in 10.0 mi SE 6.9 mph - N/A   Clear
9:12 PM 64.4 °F 51.8 °F 64% 29.82 in 10.0 mi SSE 11.5 mph - N/A   Clear
9:33 PM 66.2 °F 51.8 °F 60% 29.83 in 10.0 mi SSE 11.5 mph - N/A   Clear
9:52 PM 64.4 °F 51.8 °F 64% 29.83 in 10.0 mi SSE 11.5 mph - N/A   Clear
10:12 PM 64.4 °F 53.6 °F 68% 29.83 in 10.0 mi SE 10.4 mph - N/A   Clear
10:33 PM 62.6 °F 53.6 °F 72% 29.83 in 10.0 mi SSE 11.5 mph - N/A   Clear
10:52 PM 64.4 °F 53.6 °F 68% 29.83 in 10.0 mi SE 11.5 mph - N/A   Clear
11:13 PM 66.2 °F 53.6 °F 64% 29.84 in 10.0 mi SSE 15.0 mph 21.9 mph N/A   Clear
11:32 PM 64.4 °F 53.6 °F 68% 29.84 in 10.0 mi SSE 11.5 mph - N/A   Clear
11:52 PM 62.6 °F 53.6 °F 72% 29.85 in 10.0 mi SSE 9.2 mph - N/A   Clear